User: anonymous   Login
Location: Fours
(44.3167°N, 6.7000°E)
Time: 18:47:19
(UTC+00:00)
Language:

MINOTAUR-C DEB - Orbit

View from above orbital plane
View from above orbital plane
View from above satellite
View from above satellite

Ground track
Ground track

The orbit data is extracted from the following two-line orbital elements,

1 42993U 17068G   21172.55319491  .00000737  00000-0  37161-4 0  9998
2 42993  97.4266 279.1304 0016345 263.5744  96.3630 15.20166510201691
Epoch (UTC): 21 June 2021 13:16:36
Eccentricity: 0.0016345
inclination: 97.4266°
perigee height: 494 km
apogee height: 516 km
right ascension of ascending node: 279.1304°
argument of perigee: 263.5744°
revolutions per day: 15.20166510
mean anomaly at epoch: 96.3630°
orbit number at epoch: 20169

The dashed part of the orbit path shows where the satellite is in the earth's shadow,  

DLR